Temp
60 60 60 60 60 60 60 61 61 61 61 61 61 61 61 62 63 59 52 57 61 67 64 58 59 58 57 55 56 51 40 36 38 40 43 47 46 51 53 49 51 57 56 59 62
59 59 60 60 60 60 60 60 60 60 60 61 61 61 61 61 55 53 62 66 67 67 57 53 54 55 51 51 50 45 38 39 43 43 42 46 45 47 48 47 48 52 57 59 58
59 59 59 59 59 59 60 60 60 60 60 60 61 61 61 58 52 52 66 67 67 64 56 55 54 53 48 49 47 44 39 43 46 48 48 46 47 48 45 42 45 45 49 53 52
59 58 58 59 59 59 60 60 60 60 60 60 60 61 61 54 42 56 66 66 66 62 58 54 52 47 43 42 47 40 45 46 48 49 47 46 48 45 46 44 50 50 52 51 50
58 58 58 58 58 59 59 60 60 60 60 60 61 61 55 49 48 62 65 63 61 58 53 51 47 45 42 42 45 41 43 47 49 48 47 49 46 44 42 47 49 51 51 49 50
58 58 58 58 58 58 59 59 60 60 60 60 61 61 50 44 59 62 60 60 58 55 52 51 48 48 45 44 42 43 44 45 47 49 47 45 43 46 45 47 47 48 47 48 48
58 58 58 58 58 58 59 59 59 60 60 61 61 57 50 48 58 59 60 56 57 55 50 52 51 48 46 43 47 44 40 43 45 47 45 46 40 38 44 46 44 44 44 46 47
58 58 57 57 58 58 58 59 59 59 60 61 61 53 45 58 56 59 59 56 58 57 54 54 54 49 46 46 44 39 38 33 43 45 46 44 33 42 46 43 41 43 44 44 45
59 58 58 58 57 57 58 59 59 60 61 61 53 49 44 61 54 57 56 53 54 55 54 59 52 45 45 37 32 35 28 31 37 44 43 41 36 44 44 42 44 45 45 45 46
59 58 58 57 57 58 58 58 58 58 58 59 56 46 50 48 53 55 55 55 51 50 49 49 44 39 37 34 23 26 27 31 32 40 40 36 38 44 42 44 45 45 45 45 45
58 58 58 57 57 58 53 49 48 46 50 46 46 47 50 55 55 52 55 52 51 48 39 44 38 30 36 37 38 35 32 29 34 41 37 37 38 39 41 44 42 43 43 44 45
57 58 58 57 57 58 49 44 44 46 42 49 50 50 53 53 47 51 56 46 45 39 42 39 35 41 43 42 39 35 29 29 35 40 38 36 34 37 39 41 43 41 42 43 44
57 57 57 57 57 50 45 46 50 48 40 45 49 49 49 51 46 47 51 46 42 39 39 36 40 45 42 39 37 32 27 25 32 37 37 34 29 33 38 41 44 44 43 43 43
57 57 57 56 49 46 44 49 50 48 31 40 43 47 50 49 43 53 52 47 42 38 39 37 42 40 38 38 38 33 39 35 34 32 23 35 19 23 32 37 41 42 40 41 42
57 56 57 56 45 44 47 50 49 46 30 41 42 53 50 44 45 46 51 47 40 40 37 36 37 36 36 38 39 36 39 36 34 32 30 26 27 23 32 30 35 40 41 41 42
57 56 56 49 45 47 49 48 46 35 27 36 43 41 41 43 44 45 46 49 45 39 37 37 42 39 39 41 40 41 36 36 33 32 18 21 22 21 23 30 33 37 39 41 42
56 56 53 50 43 48 48 46 33 27 38 34 35 40 39 37 40 42 40 36 35 30 31 35 35 40 41 35 39 38 31 17 16 16 19 27 23 25 31 35 35 36 37 39 42
55 54 52 51 48 47 46 37 26 29 30 40 39 39 35 38 37 38 36 32 37 35 30 28 26 37 40 36 33 33 32 21 16 17 20 30 21 27 36 37 37 38 37 39 39
54 47 46 47 49 46 40 26 29 31 38 37 38 32 29 36 36 36 35 33 37 38 29 28 30 38 39 39 37 32 29 33 27 21 22 24 29 35 37 36 35 35 37 36 38
47 44 44 49 48 45 33 34 29 39 40 38 34 35 28 29 33 33 32 36 37 39 38 34 29 35 38 39 37 34 37 27 24 12 13 22 25 27 32 33 35 33 32 34 36
45 39 44 47 46 38 28 24 34 41 42 38 33 33 34 32 31 31 32 35 39 37 38 36 32 31 35 32 31 32 30 31 30 27 22 19 24 33 34 35 34 34 36 34 34
41 33 44 46 32 26 29 27 39 38 39 39 37 36 34 34 31 31 32 35 41 40 34 36 32 24 29 32 34 33 30 31 24 23 25 27 25 37 37 36 36 35 37 36 35
37 35 44 42 28 24 26 27 32 35 36 37 36 39 38 34 30 34 34 38 40 39 35 37 22 14 23 30 32 30 33 33 32 30 25 21 24 36 34 33 35 35 35 36 35
35 29 34 36 31 33 26 26 27 34 36 38 37 38 36 34 35 32 33 36 38 38 44 41 29 26 23 28 29 28 31 32 31 22 26 26 26 31 33 33 34 34 35 35 35
35 32 34 27 30 30 34 33 29 26 32 35 34 36 36 30 32 32 32 33 35 41 36 36 21 24 28 30 30 29 31 31 29 30 26 27 27 33 35 35 35 35 35 35 36
33 31 33 26 36 31 33 29 33 32 31 29 29 36 35 33 35 31 32 32 33 32 33 33 19 23 19 28 27 24 29 30 32 32 30 32 31 36 35 34 33 36 36 35 36
40 41 40 33 33 30 32 29 34 35 34 35 36 35 33 36 38 36 37 37 36 32 31 29 21 14 13 21 19 19 28 29 30 30 34 28 35 35 33 36 36 36 37 37 37
MSLP
1022.08 1021.87 1021.68 1021.54 1021.36 1021.18 1020.95 1020.71 1020.44 1020.15 1019.83 1019.48 1019.10 1018.76 1018.40 1018.02 1017.47 1017.35 1017.64 1017.85 1017.30 1016.63 1016.27 1015.88 1015.57 1015.47 1015.38 1015.84 1016.16 1016.68 1017.91 1018.59 1018.46 1018.50 1018.27 1018.01 1017.97 1017.27 1016.95 1016.89 1016.55 1016.50 1016.13 1015.48 1014.54
1022.16 1021.99 1021.77 1021.57 1021.41 1021.19 1020.93 1020.64 1020.40 1020.10 1019.78 1019.39 1019.02 1018.71 1018.41 1018.20 1018.04 1017.98 1017.99 1017.49 1017.06 1016.61 1016.51 1016.50 1016.35 1016.22 1016.53 1016.80 1017.14 1017.54 1018.37 1018.62 1018.47 1018.35 1018.35 1017.98 1018.02 1017.95 1017.73 1017.59 1017.39 1016.99 1016.34 1015.84 1015.06
1022.16 1022.03 1021.81 1021.62 1021.46 1021.24 1020.96 1020.69 1020.39 1020.04 1019.72 1019.39 1019.00 1018.62 1018.39 1018.21 1018.25 1018.24 1017.83 1017.47 1017.08 1016.69 1016.63 1016.72 1016.78 1016.82 1017.46 1017.81 1018.32 1018.40 1018.77 1018.80 1018.54 1018.34 1018.34 1018.14 1018.16 1018.20 1018.39 1018.65 1018.94 1018.55 1017.77 1017.15 1016.24
1022.05 1022.03 1021.89 1021.65 1021.44 1021.18 1020.93 1020.66 1020.38 1020.06 1019.74 1019.40 1019.09 1018.69 1018.28 1018.22 1018.81 1018.21 1017.81 1017.55 1017.19 1016.90 1016.63 1016.87 1017.04 1017.60 1018.35 1018.80 1018.85 1019.11 1019.30 1019.07 1018.81 1018.69 1018.54 1018.57 1018.39 1018.68 1018.95 1019.65 1019.51 1018.98 1018.46 1018.00 1017.50
1021.93 1021.94 1021.80 1021.61 1021.40 1021.13 1020.84 1020.57 1020.30 1019.96 1019.63 1019.33 1019.00 1018.63 1018.37 1018.43 1018.55 1018.01 1017.86 1017.70 1017.39 1017.28 1017.56 1017.61 1017.83 1018.29 1018.71 1019.15 1019.23 1019.35 1019.52 1019.49 1019.18 1018.98 1018.90 1018.66 1018.56 1018.76 1019.28 1019.08 1019.06 1018.95 1018.64 1018.27 1017.90
1021.77 1021.77 1021.75 1021.56 1021.33 1021.06 1020.77 1020.49 1020.18 1019.84 1019.51 1019.26 1018.95 1018.60 1018.54 1018.54 1018.24 1018.12 1017.96 1017.88 1017.92 1017.89 1018.13 1018.12 1018.49 1018.56 1018.83 1019.29 1019.47 1019.82 1019.88 1019.65 1019.42 1019.14 1018.95 1019.01 1019.10 1018.84 1019.69 1019.53 1019.31 1019.28 1019.13 1018.82 1018.37
1021.57 1021.57 1021.58 1021.47 1021.23 1020.98 1020.66 1020.35 1020.01 1019.68 1019.40 1019.16 1019.00 1018.98 1018.67 1018.68 1018.38 1018.29 1018.03 1018.06 1018.16 1018.24 1018.40 1018.56 1018.65 1018.82 1019.26 1019.65 1019.83 1019.85 1020.03 1019.91 1019.72 1019.45 1019.37 1019.22 1019.62 1020.08 1020.13 1019.85 1019.50 1019.55 1019.48 1019.06 1018.32
1021.31 1021.38 1021.41 1021.35 1021.08 1020.84 1020.57 1020.17 1019.79 1019.50 1019.24 1019.05 1018.97 1019.08 1018.79 1018.36 1018.37 1018.28 1018.12 1018.16 1018.22 1018.33 1018.45 1018.58 1018.66 1018.99 1019.28 1019.76 1020.08 1020.45 1020.57 1020.55 1019.98 1019.87 1019.71 1019.77 1020.13 1020.11 1020.20 1020.19 1020.13 1020.10 1019.82 1019.44 1018.54
1020.97 1021.06 1021.19 1021.21 1021.05 1020.79 1020.41 1019.98 1019.58 1019.29 1019.10 1018.94 1019.07 1019.04 1018.89 1018.37 1018.45 1018.39 1018.37 1018.47 1018.39 1018.49 1018.53 1018.51 1018.74 1019.45 1019.72 1020.27 1020.98 1021.37 1021.57 1021.22 1020.59 1020.23 1020.13 1020.22 1020.37 1020.50 1020.47 1020.59 1020.59 1020.43 1020.11 1019.70 1018.70
1020.73 1020.83 1020.98 1021.07 1020.91 1020.68 1020.24 1019.69 1019.35 1019.23 1019.03 1019.00 1019.17 1019.44 1019.07 1018.90 1018.60 1018.53 1018.47 1018.52 1018.56 1018.66 1018.80 1018.87 1019.30 1019.88 1020.50 1020.87 1021.80 1021.96 1022.09 1021.74 1021.35 1020.54 1020.29 1020.49 1020.45 1020.65 1020.77 1020.85 1020.84 1020.46 1020.14 1019.67 1018.83
1020.43 1020.71 1020.85 1020.91 1020.79 1020.63 1020.42 1019.80 1020.00 1019.89 1019.43 1019.23 1019.39 1019.31 1019.14 1019.02 1018.77 1018.58 1018.49 1018.49 1018.69 1018.85 1019.41 1019.43 1019.83 1020.37 1020.69 1020.82 1021.17 1021.67 1022.09 1022.16 1021.38 1020.82 1020.77 1020.82 1020.72 1021.00 1020.97 1020.96 1020.83 1020.69 1020.40 1019.83 1019.08
1020.08 1020.43 1020.63 1020.80 1020.71 1020.60 1020.83 1020.69 1020.66 1020.94 1020.05 1019.40 1019.18 1019.17 1019.04 1019.09 1019.03 1018.73 1018.58 1018.86 1019.03 1019.41 1019.72 1019.96 1019.88 1019.91 1020.17 1020.56 1021.11 1021.63 1022.09 1022.13 1021.56 1021.07 1021.22 1021.09 1021.15 1021.50 1021.36 1021.22 1021.25 1021.08 1020.68 1020.14 1019.19
1019.81 1020.18 1020.48 1020.71 1020.70 1020.74 1020.90 1020.85 1020.75 1020.79 1020.54 1019.57 1019.12 1018.98 1019.09 1019.19 1019.12 1019.00 1018.88 1019.01 1019.27 1019.63 1019.94 1020.06 1019.86 1019.69 1020.02 1020.34 1020.92 1021.62 1022.00 1022.23 1022.04 1021.41 1021.64 1021.38 1021.68 1021.98 1021.63 1021.44 1021.59 1021.44 1021.22 1020.58 1019.83
1019.58 1019.95 1020.40 1020.67 1021.19 1020.80 1020.88 1020.70 1020.70 1020.88 1020.87 1019.80 1019.24 1018.91 1019.12 1019.14 1019.24 1019.09 1019.06 1019.31 1019.46 1019.73 1019.97 1020.04 1019.75 1019.74 1019.96 1020.25 1020.69 1021.12 1021.21 1021.70 1021.95 1022.20 1022.69 1022.21 1023.33 1022.77 1022.31 1021.80 1021.69 1021.62 1021.44 1020.94 1020.31
1019.26 1019.79 1020.24 1020.68 1020.87 1020.98 1020.82 1020.70 1020.70 1021.00 1020.84 1019.90 1019.26 1019.02 1019.05 1019.43 1019.49 1019.37 1019.28 1019.32 1019.70 1019.86 1020.19 1019.98 1019.81 1019.86 1019.97 1019.93 1020.29 1020.64 1020.89 1021.36 1021.77 1022.40 1022.70 1023.50 1024.18 1022.95 1022.96 1022.38 1022.14 1021.96 1021.66 1021.37 1020.81
1018.72 1019.62 1020.25 1020.81 1020.96 1020.74 1020.66 1020.72 1021.01 1021.40 1020.50 1019.70 1019.30 1019.30 1019.50 1019.50 1019.51 1019.57 1019.56 1019.51 1020.06 1020.36 1020.32 1020.10 1019.83 1019.85 1019.75 1019.82 1020.13 1020.48 1020.99 1021.48 1022.04 1022.52 1023.26 1023.89 1024.52 1023.50 1023.13 1022.76 1022.30 1021.99 1021.75 1021.51 1021.18
1018.14 1019.33 1020.19 1020.44 1020.51 1020.42 1020.70 1021.04 1021.78 1021.31 1020.23 1019.89 1019.66 1019.62 1019.77 1019.95 1019.89 1019.78 1019.97 1020.12 1020.48 1021.09 1020.87 1020.51 1020.16 1019.82 1019.77 1019.92 1020.19 1020.66 1021.55 1022.51 1023.23 1023.56 1023.83 1023.53 1024.16 1022.76 1022.15 1022.27 1022.26 1022.13 1022.03 1021.66 1021.32
1017.83 1019.12 1019.83 1020.33 1020.26 1020.44 1020.77 1021.40 1021.89 1020.23 1019.92 1019.45 1019.71 1019.86 1020.07 1020.12 1020.34 1020.17 1020.24 1020.64 1020.54 1021.00 1021.48 1021.07 1020.62 1020.10 1019.97 1020.25 1020.65 1021.17 1021.92 1023.32 1024.08 1024.24 1024.07 1023.46 1022.95 1021.65 1021.44 1021.77 1021.67 1021.96 1022.21 1021.98 1021.58
1017.77 1019.52 1020.20 1020.35 1020.34 1020.53 1021.04 1021.33 1020.41 1019.54 1018.99 1019.13 1019.86 1020.17 1020.46 1020.38 1020.70 1020.56 1020.45 1020.63 1020.54 1020.68 1021.26 1021.27 1020.78 1020.30 1020.20 1020.35 1020.86 1021.37 1022.03 1022.79 1023.82 1024.64 1024.30 1023.10 1022.26 1020.85 1021.05 1021.66 1021.74 1021.97 1022.10 1022.21 1021.87
1017.55 1019.31 1019.87 1019.99 1020.24 1020.82 1021.25 1020.62 1019.87 1018.86 1018.56 1018.78 1019.02 1019.46 1020.19 1020.59 1021.10 1021.00 1020.56 1020.28 1020.47 1020.60 1020.86 1021.23 1021.33 1020.95 1020.66 1020.63 1021.04 1021.21 1021.94 1022.82 1023.84 1024.94 1024.26 1022.93 1022.03 1020.93 1020.79 1021.13 1021.62 1021.91 1022.08 1022.23 1022.19
1017.22 1019.04 1019.38 1019.79 1020.30 1021.06 1020.99 1020.67 1019.38 1018.60 1018.16 1018.54 1018.71 1019.32 1019.63 1020.12 1020.80 1020.82 1020.52 1020.39 1020.34 1020.75 1021.02 1021.32 1021.82 1021.95 1021.49 1021.33 1021.43 1021.92 1021.97 1022.62 1023.31 1023.99 1024.26 1023.47 1021.43 1019.85 1019.94 1020.62 1021.42 1021.74 1022.03 1022.15 1022.46
1016.30 1018.57 1019.18 1019.40 1020.67 1020.72 1020.83 1020.39 1019.26 1018.65 1018.36 1018.27 1018.34 1018.67 1019.04 1019.63 1020.31 1020.67 1020.34 1020.10 1020.05 1020.51 1021.31 1021.69 1022.33 1022.61 1022.35 1022.05 1021.91 1022.06 1022.52 1022.61 1023.18 1023.38 1023.67 1023.37 1021.02 1019.56 1019.70 1020.49 1021.13 1021.88 1022.06 1022.31 1022.34
1015.55 1018.11 1019.18 1019.59 1019.58 1020.44 1020.88 1020.33 1019.72 1019.04 1018.40 1018.30 1018.39 1018.30 1018.54 1019.14 1019.88 1019.96 1019.95 1020.19 1020.19 1020.56 1021.09 1021.88 1023.14 1023.52 1023.27 1023.26 1022.63 1022.28 1022.12 1022.59 1022.77 1023.10 1022.99 1022.98 1020.59 1019.99 1019.76 1020.68 1021.23 1021.70 1021.93 1022.15 1022.48
1014.61 1017.59 1018.78 1019.47 1018.93 1018.90 1020.20 1019.87 1019.39 1018.89 1018.40 1017.76 1017.94 1018.14 1018.54 1018.92 1019.25 1019.94 1020.31 1020.58 1020.67 1020.89 1021.37 1021.82 1023.23 1023.67 1023.46 1023.04 1022.89 1022.69 1022.20 1022.43 1022.72 1023.18 1022.28 1020.84 1020.05 1020.06 1020.37 1020.39 1020.96 1021.47 1021.82 1021.96 1022.02
1012.41 1014.31 1014.78 1016.75 1017.45 1017.97 1018.46 1017.85 1018.38 1018.43 1018.43 1017.95 1018.13 1017.57 1017.77 1018.78 1019.34 1019.79 1020.31 1020.95 1021.29 1021.37 1021.93 1022.63 1023.96 1024.37 1024.13 1023.92 1023.41 1022.90 1022.23 1022.02 1022.03 1021.59 1021.47 1019.81 1019.42 1019.17 1019.34 1019.67 1019.98 1020.68 1021.44 1022.08 1022.21
1010.26 1012.01 1014.11 1014.63 1015.63 1017.09 1017.05 1015.92 1016.37 1017.00 1017.08 1017.43 1017.47 1017.21 1017.35 1017.79 1017.85 1018.79 1019.55 1020.38 1020.84 1022.05 1022.59 1023.36 1024.73 1025.59 1025.47 1024.72 1024.10 1023.11 1021.85 1021.37 1020.92 1020.80 1020.15 1019.70 1018.38 1018.32 1018.55 1019.25 1019.96 1020.26 1020.75 1021.49 1021.77
1008.67 1010.01 1011.11 1013.03 1014.08 1015.55 1013.68 1014.68 1014.74 1015.40 1016.27 1015.87 1016.22 1017.21 1017.39 1017.20 1017.65 1018.26 1018.93 1019.48 1020.12 1021.20 1022.69 1023.88 1025.33 1026.88 1026.85 1025.95 1024.60 1022.66 1019.46 1019.42 1019.16 1018.77 1018.69 1018.87 1016.51 1017.30 1018.18 1018.51 1018.85 1019.56 1019.91 1020.43 1021.14
Wind_Speed
6 8 9 10 11 12 12 13 14 14 14 15 16 15 15 15 11 5 5 4 7 15 13 8 4 6 4 4 4 3 5 1 2 4 5 5 6 4 4 3 4 8 5 7 12
6 7 8 9 10 12 13 14 15 15 15 16 15 14 14 14 2 7 4 11 13 14 6 8 7 8 4 4 4 5 4 2 0 0 3 5 1 4 6 8 6 13 17 16 9
6 7 8 9 10 11 13 14 15 15 16 16 15 14 13 6 1 3 9 13 14 12 1 1 2 2 5 5 6 2 3 1 3 1 3 4 5 4 5 3 5 10 13 16 11
5 7 8 9 10 12 13 14 15 15 15 15 14 13 13 1 0 3 10 12 10 8 4 6 6 4 4 3 4 3 3 1 2 3 3 5 5 3 8 4 6 7 9 8 13
5 6 7 9 10 11 13 14 15 15 16 14 12 13 3 4 0 4 7 9 5 4 7 4 6 2 5 1 3 3 3 5 5 2 1 1 6 3 5 6 7 8 11 12 11
6 6 8 9 11 12 13 14 15 15 14 12 11 11 2 1 2 5 5 5 5 5 7 7 3 0 5 3 3 1 2 5 3 5 1 4 5 4 6 7 9 14 14 13 12
8 7 7 9 12 13 14 15 15 14 11 8 9 3 3 3 2 5 3 2 3 3 3 3 2 2 2 3 3 1 3 4 4 6 4 5 3 2 5 7 11 13 14 17 16
10 7 7 9 12 14 15 16 16 12 9 7 7 2 1 1 1 2 3 2 3 3 2 2 3 4 3 1 4 5 5 3 2 7 3 4 5 3 9 10 11 13 14 17 17
9 9 7 8 11 14 15 17 15 8 7 5 3 3 0 3 1 2 2 2 2 2 3 1 2 3 4 4 4 6 1 2 7 1 3 5 4 5 7 7 13 15 13 16 15
8 6 6 7 10 13 16 15 7 5 2 1 1 3 2 1 2 2 1 1 2 3 2 4 5 4 4 5 2 2 1 2 5 4 4 3 2 7 7 11 14 13 14 13 14
9 7 7 7 9 12 9 4 4 2 3 2 0 1 1 5 2 1 2 2 2 4 3 3 5 2 2 1 3 2 1 3 4 3 3 3 1 5 7 11 13 14 13 12 15
10 9 8 6 7 10 2 2 2 2 3 2 2 2 1 1 1 1 1 3 3 2 1 5 1 3 1 3 3 3 1 4 5 4 3 3 5 3 5 6 12 12 12 12 15
11 9 7 4 6 3 1 3 1 1 0 2 2 1 1 1 1 2 2 1 3 2 1 2 1 2 0 2 1 2 4 2 5 5 2 5 3 4 3 5 12 11 11 13 14
11 10 8 3 2 1 1 2 1 0 5 3 1 0 1 1 1 0 1 2 1 2 0 3 1 1 1 2 3 3 5 4 3 3 2 4 5 5 5 5 10 12 13 13 15
12 12 9 6 2 2 2 2 1 1 4 2 1 1 2 1 1 1 1 2 2 2 2 1 2 0 2 2 2 6 5 3 2 3 1 5 1 8 5 6 8 10 11 11 12
15 13 10 3 1 2 3 3 2 7 9 3 2 3 2 1 1 1 2 3 2 1 0 4 2 2 3 1 3 3 2 4 1 0 3 2 5 7 2 4 6 6 7 8 11
18 14 8 4 3 6 4 2 6 4 3 3 4 4 2 3 2 2 1 1 2 3 2 2 1 2 2 2 1 5 5 4 6 5 5 4 2 9 4 2 2 7 7 7 6
19 15 3 2 4 5 2 6 4 3 6 3 3 4 4 5 2 2 3 1 2 3 1 3 4 4 1 1 1 2 4 5 5 2 5 2 5 6 4 5 2 2 4 6 6
22 3 3 4 4 2 3 3 11 8 6 10 4 4 3 2 3 2 6 5 5 6 6 3 3 0 1 2 3 1 2 1 3 3 1 3 5 6 5 5 1 2 4 5 6
8 4 3 6 6 3 4 9 6 4 5 3 8 5 7 5 6 6 6 4 5 4 3 3 1 0 0 2 2 2 4 3 3 2 5 5 5 6 6 8 6 4 2 2 4
6 5 3 7 3 2 6 8 6 6 4 7 7 5 5 7 7 5 6 2 4 5 3 3 2 2 1 3 5 1 1 2 3 4 3 3 7 6 8 8 9 7 5 1 3
6 5 5 5 4 0 6 8 4 5 2 3 4 3 8 8 6 5 8 3 7 7 7 2 3 3 5 1 1 1 3 4 4 4 3 1 9 2 7 7 8 7 6 4 2
9 4 1 2 9 4 2 3 3 5 6 7 7 5 4 7 4 4 5 1 6 7 7 6 1 3 8 6 3 3 5 4 3 2 6 5 7 1 3 4 6 8 6 5 5
7 6 3 5 2 14 7 5 5 3 4 5 5 4 4 4 1 7 4 2 4 4 6 5 3 6 6 3 3 4 5 6 5 3 4 8 4 5 7 8 7 8 8 6 5
5 6 7 11 14 6 11 12 10 7 4 4 4 7 8 5 4 6 4 3 2 4 4 4 4 2 4 6 3 5 6 8 12 8 8 4 9 7 11 14 12 8 7 7 7
9 8 3 3 17 16 14 14 17 7 12 8 5 12 8 8 9 10 9 5 6 3 5 2 1 3 5 3 3 7 13 15 16 14 15 14 22 8 4 6 8 10 9 9 8
3 4 5 14 17 17 18 9 17 11 5 5 14 8 9 7 5 2 3 6 9 10 7 7 6 3 6 5 6 10 15 20 9 7 18 18 13 6 5 9 12 13 12 10 9
Wind_Direction
357 359 356 352 349 347 345 344 344 343 341 340 340 339 340 344 340 22 38 284 309 317 334 303 347 1 29 53 42 107 64 139 2 3 294 336 8 315 283 293 337 0 354 299 306
345 349 349 349 348 345 343 342 341 341 339 339 339 337 339 342 339 40 313 322 325 329 358 16 0 353 34 31 18 72 98 140 230 105 302 278 328 318 0 344 349 341 346 339 326
330 337 341 342 341 340 340 339 338 338 337 336 334 332 331 336 41 335 331 336 340 347 189 259 284 34 55 25 360 14 125 192 202 322 314 312 348 335 359 30 356 323 335 356 354
311 326 334 337 335 335 336 336 335 334 333 332 330 329 328 345 154 290 334 341 351 360 34 23 36 51 71 52 338 86 28 84 279 316 320 327 319 29 66 307 311 330 329 342 357
290 310 323 332 331 330 331 333 332 331 330 328 328 333 347 49 76 308 339 349 8 9 34 43 55 99 105 64 46 62 345 331 317 293 358 303 305 194 24 345 340 344 354 352 347
268 290 313 323 328 328 328 328 328 328 327 325 331 336 347 93 296 329 350 4 16 32 22 32 77 27 99 84 89 349 307 285 305 321 55 9 3 82 336 333 3 3 349 342 341
258 270 298 317 325 327 325 324 326 327 326 327 336 342 44 153 332 320 352 30 20 20 48 36 7 74 124 77 1 27 51 352 2 342 350 314 33 38 291 345 10 356 347 338 334
245 251 283 309 319 324 324 323 320 317 318 324 336 333 107 271 273 342 355 36 33 25 76 4 12 104 74 152 27 53 55 33 312 355 320 11 307 345 17 10 356 354 343 338 326
258 242 255 296 313 320 320 317 311 299 302 325 7 41 76 326 18 330 27 357 323 17 10 5 62 77 41 76 32 11 58 356 324 85 324 45 288 50 17 1 347 337 336 336 322
244 257 252 283 308 319 321 312 294 327 303 219 236 41 332 253 314 333 318 29 47 335 31 48 50 64 34 57 178 242 49 290 260 299 358 318 350 12 356 357 344 336 337 334 330
219 238 240 271 307 324 341 359 22 328 28 156 187 252 306 300 310 352 295 14 22 52 47 3 70 112 208 166 147 157 214 266 261 264 298 284 42 3 349 0 346 345 341 332 333
206 219 226 259 308 324 29 65 125 195 320 219 237 267 236 167 341 318 36 70 46 60 2 17 102 211 195 192 188 206 141 288 288 265 241 355 327 307 360 353 356 347 346 352 334
198 206 199 242 310 23 97 151 137 166 139 267 203 192 208 131 231 246 41 108 97 78 42 167 189 162 91 296 78 209 169 215 227 306 67 314 15 333 351 355 13 7 357 351 349
188 182 185 177 319 191 228 188 112 15 61 232 225 65 117 145 284 6 45 89 88 122 249 230 335 155 321 250 125 302 192 172 261 342 313 7 292 306 329 332 17 7 2 352 351
174 173 172 157 189 163 166 159 115 38 330 105 174 138 106 151 144 341 7 46 152 163 110 246 172 257 287 230 149 235 165 238 223 257 81 352 3 267 333 330 336 358 354 356 356
163 164 148 115 78 232 142 108 55 44 256 178 121 164 118 132 180 126 73 61 73 44 91 245 321 200 228 266 192 295 305 33 353 255 35 235 115 285 285 261 310 307 332 347 348
154 156 151 148 213 154 130 77 45 163 354 220 194 161 158 170 179 149 100 78 144 63 254 351 229 262 212 3 114 46 50 343 355 7 221 149 79 245 242 289 250 303 337 344 338
145 144 168 220 142 135 102 59 166 230 214 141 146 117 175 159 227 149 110 257 196 125 136 172 315 188 179 120 163 42 119 147 254 270 278 142 228 257 182 93 168 323 350 353 350
132 95 145 197 144 90 95 126 203 200 169 152 79 137 262 211 171 163 187 196 194 169 170 154 278 67 94 107 119 107 95 173 89 331 329 259 287 300 165 140 126 322 6 3 359
125 129 195 154 144 82 89 221 224 203 138 124 172 163 173 201 172 194 189 207 176 161 142 187 305 238 157 106 84 141 158 54 17 3 296 284 264 242 222 200 173 220 273 2 13
113 139 164 139 109 71 195 229 221 222 159 157 187 149 190 172 182 203 193 208 168 150 135 134 133 267 149 194 181 81 95 106 135 156 234 303 266 211 220 183 173 197 199 178 72
126 160 169 154 147 214 193 196 242 180 146 178 135 134 176 162 167 213 200 217 162 147 158 152 142 223 215 326 311 145 234 164 142 220 234 247 270 310 214 180 156 185 184 160 142
135 109 99 252 202 200 284 273 255 168 189 170 198 210 172 169 154 185 186 349 154 150 158 171 324 10 349 0 1 207 191 205 113 75 211 152 261 48 127 186 179 165 197 178 167
117 138 145 207 171 185 164 222 213 244 220 155 170 136 129 147 231 170 144 173 157 131 133 111 138 187 191 174 144 211 203 196 170 155 212 229 249 244 208 212 206 189 179 191 191
146 184 175 183 195 171 193 177 175 178 228 180 217 205 168 146 126 173 149 123 42 152 111 129 192 172 256 239 224 238 219 206 208 208 201 242 224 224 219 204 203 191 171 173 188
150 149 139 157 171 183 194 199 185 191 157 214 186 186 187 159 182 184 141 176 184 147 149 143 213 85 300 353 250 260 239 231 230 226 254 259 270 211 249 130 163 198 187 184 183
145 114 157 164 172 184 205 178 197 152 228 197 190 159 195 194 148 101 105 134 154 145 155 146 131 93 265 349 329 298 238 213 212 199 217 230 241 144 193 199 196 197 196 196 181